START_TIME,STEP,MOV.,P11,t_acc.,P23,t_acc.,P27,t_acc.,A4,t_acc.
1979-07-29 00:00:22.250 ,0,0,5.,4.8,0.,4.8,1.,4.8,0.,4.8
1979-07-29 00:00:27.050 ,0,0,3.,4.8,0.,4.8,0.,4.8,0.,4.8
1979-07-29 00:00:31.850 ,0,0,1.,4.8,0.,4.8,0.,4.8,0.,4.8
1979-07-29 00:00:36.650 ,0,0,3.,4.8,0.,4.8,0.,4.8,0.,4.8
1979-07-29 00:00:41.450 ,0,0,3.,4.8,0.,4.8,0.,4.8,0.,4.8
1979-07-29 00:00:46.250 ,1,0,1.,4.8,0.,4.8,0.,4.8,0.,4.8
1979-07-29 00:00:51.050 ,1,0,2.,4.8,0.,4.8,0.,4.8,0.,4.8
1979-07-29 00:00:55.850 ,1,0,3.,4.8,0.,4.8,0.,4.8,0.,4.8
1979-07-29 00:01:00.650 ,1,0,4.,4.8,0.,4.8,1.,4.8,0.,4.8
1979-07-29 00:01:05.450 ,1,0,2.,4.8,0.,4.8,0.,4.8,0.,4.8
1979-07-29 00:01:10.250 ,1,0,3.,4.8,0.,4.8,0.,4.8,0.,4.8
1979-07-29 00:01:15.050 ,1,0,1.,4.8,0.,4.8,0.,4.8,0.,4.8
1979-07-29 00:01:19.850 ,1,0,2.,4.8,0.,4.8,0.,4.8,0.,4.8
1979-07-29 00:01:24.650 ,1,0,2.,4.8,0.,4.8,0.,4.8,0.,4.8
1979-07-29 00:01:29.450 ,1,0,6.,4.8,0.,4.8,0.,4.8,0.,4.8
1979-07-29 00:01:34.250 ,2,0,4.,4.8,0.,4.8,0.,4.8,0.,4.8
1979-07-29 00:01:39.050 ,2,0,5.,4.8,0.,4.8,1.,4.8,0.,4.8
1979-07-29 00:01:43.850 ,2,0,6.,4.8,0.,4.8,0.,4.8,0.,4.8
1979-07-29 00:01:48.650 ,2,0,0.,4.8,0.,4.8,0.,4.8,0.,4.8
1979-07-29 00:01:53.450 ,2,0,1.,4.8,0.,4.8,0.,4.8,0.,4.8
1979-07-29 00:01:58.250 ,2,0,1.,4.8,0.,4.8,0.,4.8,0.,4.8
1979-07-29 00:02:03.050 ,2,0,6.,4.8,0.,4.8,1.,4.8,0.,4.8
1979-07-29 00:02:07.850 ,2,0,5.,4.8,0.,4.8,0.,4.8,0.,4.8
1979-07-29 00:02:12.650 ,2,0,5.,4.8,0.,4.8,0.,4.8,0.,4.8
1979-07-29 00:02:17.450 ,2,0,4.,4.8,0.,4.8,0.,4.8,0.,4.8
1979-07-29 00:02:22.250 ,3,0,5.,4.8,0.,4.8,0.,4.8,0.,4.8
1979-07-29 00:02:27.050 ,3,0,1.,4.8,0.,4.8,0.,4.8,0.,4.8
1979-07-29 00:02:31.850 ,3,0,3.,4.8,0.,4.8,0.,4.8,0.,4.8
1979-07-29 00:02:36.650 ,3,0,1.,4.8,0.,4.8,0.,4.8,0.,4.8
1979-07-29 00:02:41.450 ,3,0,3.,4.8,0.,4.8,0.,4.8,0.,4.8
1979-07-29 00:02:46.250 ,3,0,3.,4.8,0.,4.8,1.,4.8,0.,4.8
1979-07-29 00:02:51.050 ,3,0,0.,4.8,0.,4.8,0.,4.8,0.,4.8
1979-07-29 00:02:55.850 ,3,0,4.,4.8,0.,4.8,0.,4.8,0.,4.8
1979-07-29 00:03:00.650 ,3,0,3.,4.8,0.,4.8,0.,4.8,0.,4.8
1979-07-29 00:03:05.450 ,3,0,7.,4.8,0.,4.8,0.,4.8,0.,4.8
1979-07-29 00:03:10.250 ,4,0,5.,4.8,0.,4.8,0.,4.8,0.,4.8
1979-07-29 00:03:15.050 ,4,0,2.,4.8,0.,4.8,0.,4.8,0.,4.8
1979-07-29 00:03:19.850 ,4,0,2.,4.8,0.,4.8,0.,4.8,0.,4.8
1979-07-29 00:03:24.650 ,4,0,3.,4.8,0.,4.8,0.,4.8,0.,4.8
1979-07-29 00:03:29.450 ,4,0,2.,4.8,0.,4.8,0.,4.8,0.,4.8
1979-07-29 00:03:34.250 ,4,0,6.,4.8,0.,4.8,0.,4.8,0.,4.8
1979-07-29 00:03:39.050 ,4,0,1.,4.8,0.,4.8,0.,4.8,0.,4.8
1979-07-29 00:03:43.850 ,4,0,3.,4.8,0.,4.8,0.,4.8,0.,4.8
1979-07-29 00:03:48.650 ,4,0,4.,4.8,0.,4.8,0.,4.8,0.,4.8
1979-07-29 00:03:53.450 ,4,0,1.,4.8,0.,4.8,0.,4.8,0.,4.8
1979-07-29 00:03:58.250 ,5,0,4.,4.8,0.,4.8,0.,4.8,0.,4.8
1979-07-29 00:04:03.050 ,5,0,4.,4.8,0.,4.8,0.,4.8,0.,4.8
1979-07-29 00:04:07.850 ,5,0,4.,4.8,0.,4.8,0.,4.8,0.,4.8
1979-07-29 00:04:12.650 ,5,0,7.,4.8,0.,4.8,0.,4.8,0.,4.8
1979-07-29 00:04:17.450 ,5,0,2.,4.8,1.,4.8,0.,4.8,0.,4.8
1979-07-29 00:04:22.250 ,5,0,7.,4.8,0.,4.8,0.,4.8,0.,4.8
1979-07-29 00:04:27.050 ,5,0,1.,4.8,0.,4.8,0.,4.8,0.,4.8
1979-07-29 00:04:31.850 ,5,0,6.,4.8,0.,4.8,0.,4.8,0.,4.8
1979-07-29 00:04:36.650 ,5,0,4.,4.8,0.,4.8,0.,4.8,0.,4.8
1979-07-29 00:04:41.450 ,5,0,2.,4.8,0.,4.8,0.,4.8,0.,4.8
1979-07-29 00:04:46.250 ,6,0,1.,4.8,0.,4.8,0.,4.8,0.,4.8
1979-07-29 00:04:51.050 ,6,0,6.,4.8,0.,4.8,0.,4.8,0.,4.8
1979-07-29 00:04:55.850 ,6,0,2.,4.8,0.,4.8,0.,4.8,0.,4.8
1979-07-29 00:05:00.650 ,6,0,5.,4.8,0.,4.8,0.,4.8,0.,4.8
1979-07-29 00:05:05.450 ,6,0,3.,4.8,0.,4.8,1.,4.8,0.,4.8
1979-07-29 00:05:10.250 ,6,0,2.,4.8,0.,4.8,0.,4.8,0.,4.8
1979-07-29 00:05:15.050 ,6,0,4.,4.8,0.,4.8,0.,4.8,0.,4.8
1979-07-29 00:05:19.850 ,6,0,3.,4.8,0.,4.8,0.,4.8,0.,4.8
1979-07-29 00:05:24.650 ,6,0,4.,4.8,0.,4.8,0.,4.8,0.,4.8
1979-07-29 00:05:29.450 ,6,0,4.,4.8,0.,4.8,0.,4.8,0.,4.8
1979-07-29 00:05:34.250 ,7,0,2.,4.8,0.,4.8,0.,4.8,0.,4.8
1979-07-29 00:05:39.050 ,7,0,2.,4.8,0.,4.8,0.,4.8,0.,4.8
1979-07-29 00:05:43.850 ,7,0,2.,4.8,0.,4.8,0.,4.8,0.,4.8
1979-07-29 00:05:48.650 ,7,0,1.,4.8,0.,4.8,0.,4.8,0.,4.8
1979-07-29 00:05:53.450 ,7,0,1.,4.8,0.,4.8,0.,4.8,0.,4.8
1979-07-29 00:05:58.250 ,7,0,5.,4.8,0.,4.8,0.,4.8,0.,4.8
1979-07-29 00:06:03.050 ,7,0,1.,4.8,0.,4.8,1.,4.8,0.,4.8
1979-07-29 00:06:07.850 ,7,0,2.,4.8,0.,4.8,0.,4.8,0.,4.8
1979-07-29 00:06:12.650 ,7,0,1.,4.8,0.,4.8,0.,4.8,0.,4.8
1979-07-29 00:06:17.450 ,7,0,1.,4.8,0.,4.8,0.,4.8,0.,4.8
1979-07-29 00:06:22.250 ,7,0,1.,4.8,0.,4.8,0.,4.8,0.,4.8
1979-07-29 00:06:27.050 ,7,0,0.,4.8,0.,4.8,0.,4.8,0.,4.8
1979-07-29 00:06:31.850 ,7,0,1.,4.8,0.,4.8,0.,4.8,0.,4.8
1979-07-29 00:06:36.650 ,7,0,0.,4.8,1.,4.8,0.,4.8,0.,4.8
1979-07-29 00:06:41.450 ,7,0,2.,4.8,0.,4.8,0.,4.8,0.,4.8
1979-07-29 00:06:46.250 ,7,0,2.,4.8,0.,4.8,0.,4.8,0.,4.8
1979-07-29 00:06:51.050 ,7,0,1.,4.8,0.,4.8,1.,4.8,0.,4.8
1979-07-29 00:06:55.850 ,7,0,2.,4.8,0.,4.8,0.,4.8,0.,4.8
1979-07-29 00:07:00.650 ,7,0,3.,4.8,0.,4.8,0.,4.8,0.,4.8
1979-07-29 00:07:05.450 ,7,0,1.,4.8,0.,4.8,0.,4.8,0.,4.8
1979-07-29 00:07:10.250 ,6,0,0.,4.8,0.,4.8,0.,4.8,0.,4.8
1979-07-29 00:07:15.050 ,6,0,2.,4.8,0.,4.8,1.,4.8,0.,4.8
1979-07-29 00:07:19.850 ,6,0,1.,4.8,0.,4.8,0.,4.8,0.,4.8
1979-07-29 00:07:24.650 ,6,0,4.,4.8,0.,4.8,0.,4.8,0.,4.8
1979-07-29 00:07:29.450 ,6,0,0.,4.8,0.,4.8,0.,4.8,0.,4.8
1979-07-29 00:07:34.250 ,6,0,5.,4.8,0.,4.8,0.,4.8,0.,4.8
1979-07-29 00:07:39.050 ,6,0,3.,4.8,0.,4.8,0.,4.8,0.,4.8
1979-07-29 00:07:43.850 ,6,0,3.,4.8,0.,4.8,0.,4.8,0.,4.8
1979-07-29 00:07:48.650 ,6,0,3.,4.8,0.,4.8,0.,4.8,0.,4.8
1979-07-29 00:07:53.450 ,6,0,3.,4.8,0.,4.8,0.,4.8,0.,4.8
1979-07-29 00:07:58.250 ,5,0,3.,4.8,0.,4.8,0.,4.8,0.,4.8
1979-07-29 00:08:03.050 ,5,0,4.,4.8,0.,4.8,0.,4.8,0.,4.8
1979-07-29 00:08:07.850 ,5,0,3.,4.8,0.,4.8,0.,4.8,0.,4.8
1979-07-29 00:08:12.650 ,5,0,3.,4.8,0.,4.8,0.,4.8,0.,4.8
1979-07-29 00:08:17.450 ,5,0,7.,4.8,0.,4.8,0.,4.8,0.,4.8
1979-07-29 00:08:22.250 ,5,0,0.,4.8,0.,4.8,0.,4.8,0.,4.8
1979-07-29 00:08:27.050 ,5,0,3.,4.8,0.,4.8,0.,4.8,0.,4.8
1979-07-29 00:08:31.850 ,5,0,2.,4.8,0.,4.8,0.,4.8,0.,4.8
1979-07-29 00:08:36.650 ,5,0,1.,4.8,0.,4.8,0.,4.8,0.,4.8
1979-07-29 00:08:41.450 ,5,0,3.,4.8,0.,4.8,0.,4.8,0.,4.8
1979-07-29 00:08:46.250 ,4,0,0.,4.8,0.,4.8,1.,4.8,0.,4.8
1979-07-29 00:08:51.050 ,4,0,2.,4.8,0.,4.8,0.,4.8,0.,4.8
1979-07-29 00:08:55.850 ,4,0,1.,4.8,0.,4.8,0.,4.8,0.,4.8
1979-07-29 00:09:00.650 ,4,0,2.,4.8,0.,4.8,0.,4.8,0.,4.8
1979-07-29 00:09:05.450 ,4,0,3.,4.8,0.,4.8,0.,4.8,0.,4.8
1979-07-29 00:09:10.250 ,4,0,3.,4.8,0.,4.8,0.,4.8,0.,4.8
1979-07-29 00:09:15.050 ,4,0,4.,4.8,0.,4.8,1.,4.8,0.,4.8
1979-07-29 00:09:19.850 ,4,0,3.,4.8,0.,4.8,1.,4.8,0.,4.8
1979-07-29 00:09:24.650 ,4,0,1.,4.8,0.,4.8,1.,4.8,0.,4.8
1979-07-29 00:09:29.450 ,4,0,5.,4.8,0.,4.8,0.,4.8,0.,4.8
1979-07-29 00:09:34.250 ,3,0,6.,4.8,0.,4.8,0.,4.8,0.,4.8
1979-07-29 00:09:39.050 ,3,0,1.,4.8,0.,4.8,0.,4.8,0.,4.8
1979-07-29 00:09:43.850 ,3,0,0.,4.8,0.,4.8,0.,4.8,0.,4.8
1979-07-29 00:09:48.650 ,3,0,1.,4.8,0.,4.8,0.,4.8,0.,4.8
1979-07-29 00:09:53.450 ,3,0,4.,4.8,0.,4.8,0.,4.8,0.,4.8
1979-07-29 00:09:58.250 ,3,0,2.,4.8,0.,4.8,0.,4.8,0.,4.8
1979-07-29 00:10:03.050 ,3,0,5.,4.8,0.,4.8,0.,4.8,0.,4.8
1979-07-29 00:10:07.850 ,3,0,2.,4.8,0.,4.8,0.,4.8,0.,4.8
1979-07-29 00:10:12.650 ,3,0,5.,4.8,0.,4.8,0.,4.8,0.,4.8
1979-07-29 00:10:17.450 ,3,0,4.,4.8,0.,4.8,0.,4.8,0.,4.8
1979-07-29 00:10:22.250 ,2,0,4.,4.8,0.,4.8,0.,4.8,0.,4.8
1979-07-29 00:10:27.050 ,2,0,4.,4.8,0.,4.8,0.,4.8,0.,4.8
1979-07-29 00:10:31.850 ,2,0,11.,4.8,0.,4.8,0.,4.8,0.,4.8
1979-07-29 00:10:36.650 ,2,0,3.,4.8,0.,4.8,0.,4.8,0.,4.8
1979-07-29 00:10:41.450 ,2,0,4.,4.8,0.,4.8,0.,4.8,0.,4.8
1979-07-29 00:10:46.250 ,2,0,2.,4.8,1.,4.8,1.,4.8,0.,4.8
1979-07-29 00:10:51.050 ,2,0,4.,4.8,0.,4.8,0.,4.8,0.,4.8
1979-07-29 00:10:55.850 ,2,0,2.,4.8,1.,4.8,0.,4.8,0.,4.8
1979-07-29 00:11:00.650 ,2,0,1.,4.8,0.,4.8,0.,4.8,0.,4.8
1979-07-29 00:11:05.450 ,2,0,3.,4.8,0.,4.8,0.,4.8,0.,4.8
1979-07-29 00:11:10.250 ,1,0,4.,4.8,0.,4.8,1.,4.8,0.,4.8
1979-07-29 00:11:15.050 ,1,0,3.,4.8,0.,4.8,0.,4.8,0.,4.8
1979-07-29 00:11:19.850 ,1,0,1.,4.8,0.,4.8,0.,4.8,0.,4.8
1979-07-29 00:11:24.650 ,1,0,3.,4.8,0.,4.8,1.,4.8,0.,4.8
1979-07-29 00:11:29.450 ,1,0,4.,4.8,0.,4.8,1.,4.8,0.,4.8
1979-07-29 00:11:34.250 ,1,0,1.,4.8,0.,4.8,0.,4.8,0.,4.8
1979-07-29 00:11:39.050 ,1,0,2.,4.8,0.,4.8,0.,4.8,0.,4.8
1979-07-29 00:11:43.850 ,1,0,3.,4.8,0.,4.8,0.,4.8,0.,4.8
1979-07-29 00:11:48.650 ,1,0,4.,4.8,0.,4.8,0.,4.8,0.,4.8
1979-07-29 00:11:53.450 ,1,0,5.,4.8,0.,4.8,0.,4.8,0.,4.8
1979-07-29 00:11:58.250 ,0,0,3.,4.8,0.,4.8,0.,4.8,0.,4.8
1979-07-29 00:12:03.050 ,0,0,5.,4.8,0.,4.8,0.,4.8,0.,4.8
1979-07-29 00:12:07.850 ,0,0,2.,4.8,0.,4.8,1.,4.8,0.,4.8
1979-07-29 00:12:12.650 ,0,0,3.,4.8,0.,4.8,0.,4.8,0.,4.8
1979-07-29 00:12:17.450 ,0,0,3.,4.8,0.,4.8,0.,4.8,0.,4.8
1979-07-29 00:12:22.250 ,0,0,4.,4.8,0.,4.8,0.,4.8,0.,4.8
1979-07-29 00:12:27.050 ,0,0,3.,4.8,1.,4.8,1.,4.8,0.,4.8
1979-07-29 00:12:31.850 ,0,0,3.,4.8,0.,4.8,1.,4.8,0.,4.8
1979-07-29 00:12:36.650 ,0,0,3.,4.8,0.,4.8,0.,4.8,0.,4.8
1979-07-29 00:12:41.450 ,0,0,1.,4.8,0.,4.8,0.,4.8,0.,4.8
1979-07-29 00:12:46.250 ,0,0,3.,4.8,0.,4.8,1.,4.8,0.,4.8
1979-07-29 00:12:51.050 ,0,0,1.,4.8,0.,4.8,0.,4.8,0.,4.8
1979-07-29 00:12:55.850 ,0,0,2.,4.8,0.,4.8,0.,4.8,0.,4.8
1979-07-29 00:13:00.650 ,0,0,2.,4.8,0.,4.8,0.,4.8,0.,4.8
1979-07-29 00:13:05.450 ,0,0,5.,4.8,0.,4.8,0.,4.8,0.,4.8
1979-07-29 00:13:10.250 ,0,0,3.,4.8,0.,4.8,0.,4.8,0.,4.8
1979-07-29 00:13:15.050 ,0,0,2.,4.8,0.,4.8,0.,4.8,0.,4.8
1979-07-29 00:13:19.850 ,0,0,4.,4.8,0.,4.8,0.,4.8,0.,4.8
1979-07-29 00:13:24.650 ,0,0,3.,4.8,0.,4.8,0.,4.8,0.,4.8
1979-07-29 00:13:29.450 ,0,0,1.,4.8,0.,4.8,0.,4.8,0.,4.8
1979-07-29 00:13:34.250 ,0,0,2.,4.8,0.,4.8,0.,4.8,0.,4.8
1979-07-29 00:13:39.050 ,0,0,1.,4.8,0.,4.8,0.,4.8,0.,4.8
1979-07-29 00:13:43.850 ,0,0,,0,,0,,0,,0
1979-07-29 00:13:48.650 ,0,0,,0,,0,,0,,0
1979-07-29 00:13:53.450 ,0,0,,0,,0,,0,,0
1979-07-29 00:13:58.250 ,0,0,,0,,0,,0,,0
1979-07-29 00:14:03.050 ,0,0,,0,,0,,0,,0
1979-07-29 00:14:07.850 ,0,0,,0,,0,,0,,0
1979-07-29 00:14:12.650 ,0,0,,0,,0,,0,,0
1979-07-29 00:14:17.450 ,0,0,,0,,0,,0,,0
1979-07-29 00:20:13.250 ,0,0,,0,,0,,0,,0
1979-07-29 00:20:18.050 ,0,0,,0,,0,,0,,0
1979-07-29 00:20:22.850 ,0,0,,0,,0,,0,,0
1979-07-29 00:20:27.650 ,0,0,2.,4.8,0.,4.8,0.,4.8,0.,4.8
1979-07-29 00:20:32.450 ,0,0,1.,4.8,0.,4.8,0.,4.8,0.,4.8
1979-07-29 00:20:22.250 ,7,1,0.,4.8,0.,4.8,0.,4.8,0.,4.8
1979-07-29 00:20:27.050 ,7,1,2.,4.8,0.,4.8,0.,4.8,0.,4.8
1979-07-29 00:20:31.850 ,7,1,1.,4.8,0.,4.8,0.,4.8,0.,4.8
1979-07-29 00:20:36.650 ,7,1,5.,4.8,0.,4.8,0.,4.8,0.,4.8
1979-07-29 00:20:41.450 ,7,1,1.,4.8,0.,4.8,0.,4.8,0.,4.8
1979-07-29 00:20:46.250 ,3,1,4.,4.8,0.,4.8,0.,4.8,0.,4.8
1979-07-29 00:20:51.050 ,3,1,1.,4.8,0.,4.8,0.,4.8,0.,4.8
1979-07-29 00:20:55.850 ,3,1,4.,4.8,0.,4.8,1.,4.8,0.,4.8
1979-07-29 00:21:00.650 ,3,1,4.,4.8,0.,4.8,1.,4.8,0.,4.8
1979-07-29 00:21:05.450 ,3,1,3.,4.8,0.,4.8,0.,4.8,0.,4.8
1979-07-29 00:21:10.250 ,0,1,5.,4.8,0.,4.8,0.,4.8,0.,4.8
1979-07-29 00:21:15.050 ,0,1,2.,4.8,0.,4.8,0.,4.8,0.,4.8
1979-07-29 00:21:19.850 ,0,1,5.,4.8,0.,4.8,0.,4.8,0.,4.8
1979-07-29 00:21:24.650 ,0,1,2.,4.8,0.,4.8,0.,4.8,0.,4.8
1979-07-29 00:21:29.450 ,0,1,3.,4.8,0.,4.8,0.,4.8,0.,4.8
1979-07-29 00:21:34.250 ,0,0,1.,4.8,0.,4.8,0.,4.8,0.,4.8
1979-07-29 00:21:39.050 ,0,0,,0,,0,,0,,0
1979-07-29 00:21:43.850 ,0,0,,0,,0,,0,,0
1979-07-29 00:21:48.650 ,0,0,,0,,0,,0,,0
1979-07-29 00:21:53.450 ,0,0,,0,,0,,0,,0
1979-07-29 00:21:58.250 ,0,0,,0,,0,,0,,0
1979-07-29 00:22:03.050 ,0,0,,0,,0,,0,,0
1979-07-29 00:22:07.850 ,0,0,,0,,0,,0,,0
1979-07-29 00:22:12.650 ,0,0,,0,,0,,0,,0
1979-07-29 00:22:17.450 ,0,0,,0,,0,,0,,0
1979-07-29 00:23:16.850 ,0,0,,0,,0,,0,,0
1979-07-29 00:23:21.650 ,0,0,,0,,0,,0,,0
1979-07-29 00:23:26.450 ,0,0,5.,4.8,0.,4.8,0.,4.8,0.,4.8
1979-07-29 00:23:31.250 ,0,0,6.,4.8,0.,4.8,0.,4.8,0.,4.8
1979-07-29 00:23:36.050 ,0,0,2.,4.8,0.,4.8,0.,4.8,0.,4.8
1979-07-29 00:23:34.250 ,7,1,2.,4.8,0.,4.8,0.,4.8,0.,4.8
1979-07-29 00:23:39.050 ,7,1,7.,4.8,0.,4.8,0.,4.8,0.,4.8
1979-07-29 00:23:43.850 ,7,1,2.,4.8,0.,4.8,0.,4.8,0.,4.8
1979-07-29 00:23:48.650 ,7,1,3.,4.8,0.,4.8,0.,4.8,0.,4.8
1979-07-29 00:23:53.450 ,7,1,1.,4.8,0.,4.8,0.,4.8,0.,4.8
1979-07-29 00:23:58.250 ,3,1,5.,4.8,0.,4.8,0.,4.8,0.,4.8
1979-07-29 00:24:03.050 ,3,1,2.,4.8,0.,4.8,0.,4.8,0.,4.8
1979-07-29 00:24:07.850 ,3,1,3.,4.8,0.,4.8,0.,4.8,0.,4.8
1979-07-29 00:24:12.650 ,3,1,2.,4.8,0.,4.8,0.,4.8,0.,4.8
1979-07-29 00:24:17.450 ,3,1,1.,4.8,0.,4.8,0.,4.8,0.,4.8
1979-07-29 00:24:22.250 ,0,1,0.,4.8,0.,4.8,0.,4.8,0.,4.8
1979-07-29 00:24:27.050 ,0,1,3.,4.8,0.,4.8,0.,4.8,0.,4.8
1979-07-29 00:24:31.850 ,0,1,5.,4.8,0.,4.8,0.,4.8,0.,4.8
1979-07-29 00:24:36.650 ,0,1,4.,4.8,0.,4.8,0.,4.8,0.,4.8
1979-07-29 00:24:41.450 ,0,1,6.,4.8,0.,4.8,0.,4.8,0.,4.8
1979-07-29 00:24:46.250 ,4,1,1.,4.8,0.,4.8,0.,4.8,0.,4.8
1979-07-29 00:24:51.050 ,4,1,2.,4.8,0.,4.8,0.,4.8,0.,4.8
1979-07-29 00:24:55.850 ,4,1,2.,4.8,0.,4.8,0.,4.8,0.,4.8
1979-07-29 00:25:00.650 ,4,1,6.,4.8,1.,4.8,0.,4.8,0.,4.8
1979-07-29 00:25:05.450 ,4,1,2.,4.8,0.,4.8,1.,4.8,0.,4.8
1979-07-29 00:25:10.250 ,7,1,5.,4.8,0.,4.8,0.,4.8,0.,4.8
1979-07-29 00:25:15.050 ,7,1,3.,4.8,0.,4.8,0.,4.8,0.,4.8
1979-07-29 00:25:19.850 ,7,1,3.,4.8,0.,4.8,0.,4.8,0.,4.8
1979-07-29 00:25:24.650 ,7,1,3.,4.8,0.,4.8,0.,4.8,0.,4.8
1979-07-29 00:25:29.450 ,7,1,2.,4.8,0.,4.8,0.,4.8,0.,4.8
1979-07-29 00:25:34.250 ,3,1,0.,4.8,0.,4.8,0.,4.8,0.,4.8
1979-07-29 00:25:39.050 ,3,1,2.,4.8,0.,4.8,0.,4.8,0.,4.8
1979-07-29 00:25:43.850 ,3,1,5.,4.8,0.,4.8,0.,4.8,0.,4.8
1979-07-29 00:25:48.650 ,3,1,2.,4.8,0.,4.8,0.,4.8,0.,4.8
1979-07-29 00:25:53.450 ,3,1,3.,4.8,0.,4.8,0.,4.8,0.,4.8
1979-07-29 00:25:58.250 ,0,1,0.,4.8,0.,4.8,0.,4.8,0.,4.8
1979-07-29 00:26:03.050 ,0,1,4.,4.8,0.,4.8,0.,4.8,0.,4.8
1979-07-29 00:26:07.850 ,0,1,3.,4.8,0.,4.8,0.,4.8,0.,4.8
1979-07-29 00:26:12.650 ,0,1,0.,4.8,0.,4.8,0.,4.8,0.,4.8
1979-07-29 00:26:17.450 ,0,1,3.,4.8,0.,4.8,0.,4.8,0.,4.8
1979-07-29 00:26:22.250 ,4,1,3.,4.8,0.,4.8,2.,4.8,0.,4.8
1979-07-29 00:26:27.050 ,4,1,0.,4.8,0.,4.8,0.,4.8,0.,4.8
1979-07-29 00:26:31.850 ,4,1,3.,4.8,0.,4.8,0.,4.8,0.,4.8
1979-07-29 00:26:36.650 ,4,1,3.,4.8,0.,4.8,0.,4.8,0.,4.8
1979-07-29 00:26:41.450 ,4,1,2.,4.8,1.,4.8,1.,4.8,0.,4.8
1979-07-29 00:26:46.250 ,7,1,4.,4.8,0.,4.8,0.,4.8,0.,4.8
1979-07-29 00:26:51.050 ,7,1,0.,4.8,0.,4.8,0.,4.8,0.,4.8
1979-07-29 00:26:55.850 ,7,1,2.,4.8,0.,4.8,1.,4.8,0.,4.8
1979-07-29 00:27:00.650 ,7,1,3.,4.8,0.,4.8,0.,4.8,0.,4.8
1979-07-29 00:27:05.450 ,7,1,0.,4.8,0.,4.8,0.,4.8,0.,4.8
1979-07-29 00:27:10.250 ,3,1,0.,4.8,0.,4.8,0.,4.8,0.,4.8
1979-07-29 00:27:15.050 ,3,1,3.,4.8,0.,4.8,0.,4.8,0.,4.8
1979-07-29 00:27:19.850 ,3,1,3.,4.8,0.,4.8,0.,4.8,0.,4.8
1979-07-29 00:27:24.650 ,3,1,,0,,0,,0,,0
1979-07-29 00:27:29.450 ,3,1,2.,4.8,0.,4.8,0.,4.8,0.,4.8
1979-07-29 00:27:34.250 ,0,1,2.,4.8,0.,4.8,0.,4.8,0.,4.8
1979-07-29 00:27:39.050 ,0,1,4.,4.8,0.,4.8,0.,4.8,0.,4.8
1979-07-29 00:27:43.850 ,0,1,1.,4.8,0.,4.8,0.,4.8,0.,4.8
1979-07-29 00:27:48.650 ,0,1,1.,4.8,0.,4.8,0.,4.8,0.,4.8
1979-07-29 00:27:53.450 ,0,1,0.,4.8,0.,4.8,1.,4.8,0.,4.8
1979-07-29 00:27:58.250 ,4,1,3.,4.8,0.,4.8,0.,4.8,0.,4.8
1979-07-29 00:28:03.050 ,4,1,1.,4.8,0.,4.8,1.,4.8,0.,4.8
1979-07-29 00:28:07.850 ,4,1,3.,4.8,0.,4.8,0.,4.8,0.,4.8
1979-07-29 00:28:12.650 ,4,1,2.,4.8,0.,4.8,0.,4.8,0.,4.8
1979-07-29 00:28:17.450 ,4,1,3.,4.8,0.,4.8,0.,4.8,0.,4.8
1979-07-29 00:28:22.250 ,7,1,6.,4.8,0.,4.8,0.,4.8,0.,4.8
1979-07-29 00:28:27.050 ,7,1,3.,4.8,0.,4.8,0.,4.8,0.,4.8
1979-07-29 00:28:31.850 ,7,1,1.,4.8,0.,4.8,0.,4.8,0.,4.8
1979-07-29 00:28:36.650 ,7,1,3.,4.8,1.,4.8,0.,4.8,0.,4.8
1979-07-29 00:28:41.450 ,7,1,1.,4.8,0.,4.8,0.,4.8,0.,4.8
1979-07-29 00:28:46.250 ,0,0,5.,4.8,0.,4.8,0.,4.8,0.,4.8
1979-07-29 00:28:51.050 ,0,0,4.,4.8,1.,4.8,0.,4.8,0.,4.8
1979-07-29 00:28:55.850 ,0,0,4.,4.8,0.,4.8,0.,4.8,0.,4.8
1979-07-29 00:29:00.650 ,0,0,,0,,0,,0,,0
1979-07-29 00:29:05.450 ,0,0,,0,,0,,0,,0
1979-07-29 00:29:10.250 ,0,0,,0,,0,,0,,0
1979-07-29 00:29:15.050 ,0,0,,0,,0,,0,,0
1979-07-29 00:29:19.850 ,0,0,,0,,0,,0,,0
1979-07-29 00:29:24.650 ,0,0,,0,,0,,0,,0
1979-07-29 00:29:29.450 ,0,0,,0,,0,,0,,0
1979-07-29 00:30:28.250 ,0,0,,0,,0,,0,,0
1979-07-29 00:30:33.050 ,0,0,,0,,0,,0,,0
1979-07-29 00:30:37.850 ,0,0,1.,4.8,0.,4.8,1.,4.8,0.,4.8
1979-07-29 00:30:42.650 ,0,0,3.,4.8,0.,4.8,0.,4.8,0.,4.8
1979-07-29 00:30:47.450 ,0,0,3.,4.8,0.,4.8,0.,4.8,0.,4.8
1979-07-29 00:30:46.250 ,0,0,6.,4.8,0.,4.8,0.,4.8,0.,4.8
1979-07-29 00:30:51.050 ,0,0,2.,4.8,0.,4.8,1.,4.8,0.,4.8
1979-07-29 00:30:55.850 ,0,0,1.,4.8,0.,4.8,0.,4.8,0.,4.8
1979-07-29 00:31:00.650 ,0,0,2.,4.8,0.,4.8,0.,4.8,0.,4.8
1979-07-29 00:31:05.450 ,0,0,4.,4.8,0.,4.8,2.,4.8,0.,4.8
1979-07-29 00:31:10.250 ,4,0,3.,4.8,0.,4.8,0.,4.8,0.,4.8
1979-07-29 00:31:15.050 ,4,0,0.,4.8,0.,4.8,0.,4.8,0.,4.8
1979-07-29 00:31:19.850 ,4,0,1.,4.8,0.,4.8,0.,4.8,0.,4.8
1979-07-29 00:31:24.650 ,4,0,,0,,0,,0,,0
1979-07-29 00:31:29.450 ,4,0,4.,4.8,0.,4.8,0.,4.8,0.,4.8
1979-07-29 00:31:34.250 ,4,0,4.,4.8,0.,4.8,0.,4.8,0.,4.8
1979-07-29 00:31:39.050 ,4,0,4.,4.8,0.,4.8,0.,4.8,0.,4.8
1979-07-29 00:31:43.850 ,4,0,4.,4.8,0.,4.8,0.,4.8,0.,4.8
1979-07-29 00:31:48.650 ,4,0,4.,4.8,0.,4.8,0.,4.8,0.,4.8
1979-07-29 00:31:53.450 ,4,0,3.,4.8,0.,4.8,0.,4.8,0.,4.8
1979-07-29 00:31:58.250 ,3,0,,0,,0,,0,,0
1979-07-29 00:32:03.050 ,3,0,3.,4.8,0.,4.8,0.,4.8,0.,4.8
1979-07-29 00:32:07.850 ,3,0,3.,4.8,0.,4.8,0.,4.8,0.,4.8
1979-07-29 00:32:12.650 ,3,0,2.,4.8,0.,4.8,0.,4.8,0.,4.8
1979-07-29 00:32:17.450 ,3,0,4.,4.8,1.,4.8,0.,4.8,0.,4.8
1979-07-29 00:32:22.250 ,0,0,3.,4.8,0.,4.8,0.,4.8,0.,4.8
1979-07-29 00:32:27.050 ,0,0,2.,4.8,0.,4.8,1.,4.8,0.,4.8
1979-07-29 00:32:31.850 ,0,0,,0,,0,,0,,0
1979-07-29 00:32:36.650 ,0,0,4.,4.8,0.,4.8,0.,4.8,0.,4.8
1979-07-29 00:32:41.450 ,0,0,,0,,0,,0,,0
1979-07-29 00:32:46.250 ,2,0,2.,4.8,0.,4.8,0.,4.8,0.,4.8
1979-07-29 00:32:51.050 ,2,0,1.,4.8,1.,4.8,0.,4.8,0.,4.8
1979-07-29 00:32:55.850 ,2,0,2.,4.8,0.,4.8,0.,4.8,0.,4.8
1979-07-29 00:33:00.650 ,2,0,5.,4.8,0.,4.8,0.,4.8,0.,4.8
1979-07-29 00:33:05.450 ,2,0,,0,,0,,0,,0
1979-07-29 00:33:10.250 ,0,0,2.,4.8,1.,4.8,2.,4.8,0.,4.8
1979-07-29 00:33:15.050 ,0,0,1.,4.8,0.,4.8,0.,4.8,0.,4.8
1979-07-29 00:33:19.850 ,0,0,3.,4.8,0.,4.8,0.,4.8,0.,4.8
1979-07-29 00:33:24.650 ,0,0,2.,4.8,0.,4.8,0.,4.8,0.,4.8
1979-07-29 00:33:29.450 ,0,0,2.,4.8,0.,4.8,0.,4.8,0.,4.8
1979-07-29 00:33:34.250 ,0,0,2.,4.8,0.,4.8,0.,4.8,0.,4.8
1979-07-29 00:33:39.050 ,0,0,,0,,0,,0,,0
1979-07-29 00:33:43.850 ,0,0,,0,,0,,0,,0
1979-07-29 00:33:48.650 ,0,0,,0,,0,,0,,0
1979-07-29 00:33:53.450 ,0,0,,0,,0,,0,,0
1979-07-29 00:33:58.250 ,0,0,,0,,0,,0,,0
1979-07-29 00:34:03.050 ,0,0,,0,,0,,0,,0
1979-07-29 00:34:07.850 ,0,0,3.,4.8,0.,4.8,0.,4.8,0.,4.8
1979-07-29 00:34:12.650 ,0,0,3.,4.8,0.,4.8,0.,4.8,0.,4.8
1979-07-29 00:34:17.450 ,0,0,,0,,0,,0,,0
1979-07-29 00:34:22.250 ,0,0,3.,4.8,0.,4.8,0.,4.8,0.,4.8
1979-07-29 00:34:27.050 ,0,0,3.,4.8,0.,4.8,0.,4.8,0.,4.8
1979-07-29 00:34:31.850 ,0,0,5.,4.8,0.,4.8,1.,4.8,0.,4.8
1979-07-29 00:34:36.650 ,0,0,1.,4.8,0.,4.8,0.,4.8,0.,4.8
1979-07-29 00:34:41.450 ,0,0,2.,4.8,0.,4.8,0.,4.8,0.,4.8
1979-07-29 00:34:46.250 ,0,0,3.,4.8,0.,4.8,0.,4.8,0.,4.8
1979-07-29 00:34:51.050 ,0,0,1.,4.8,0.,4.8,0.,4.8,0.,4.8
1979-07-29 00:34:55.850 ,0,0,,0,,0,,0,,0
1979-07-29 00:35:00.650 ,0,0,6.,4.8,0.,4.8,0.,4.8,0.,4.8
1979-07-29 00:35:05.450 ,0,0,,0,,0,,0,,0
1979-07-29 00:35:10.250 ,0,0,0.,4.8,0.,4.8,0.,4.8,0.,4.8
1979-07-29 00:35:15.050 ,0,0,3.,4.8,0.,4.8,0.,4.8,0.,4.8
1979-07-29 00:35:19.850 ,0,0,2.,4.8,0.,4.8,0.,4.8,0.,4.8
1979-07-29 00:35:24.650 ,0,0,3.,4.8,0.,4.8,0.,4.8,0.,4.8
1979-07-29 00:35:29.450 ,0,0,5.,4.8,0.,4.8,0.,4.8,0.,4.8
1979-07-29 00:35:34.250 ,0,0,,0,,0,,0,,0
1979-07-29 00:35:39.050 ,0,0,4.,4.8,0.,4.8,0.,4.8,0.,4.8
1979-07-29 00:35:43.850 ,0,0,4.,4.8,0.,4.8,0.,4.8,0.,4.8
1979-07-29 00:35:48.650 ,0,0,0.,4.8,0.,4.8,0.,4.8,0.,4.8
1979-07-29 00:35:53.450 ,0,0,5.,4.8,0.,4.8,0.,4.8,0.,4.8
1979-07-29 00:35:58.250 ,0,0,1.,4.8,0.,4.8,0.,4.8,0.,4.8
1979-07-29 00:36:03.050 ,0,0,1.,4.8,0.,4.8,0.,4.8,0.,4.8
1979-07-29 00:36:07.850 ,0,0,6.,4.8,0.,4.8,0.,4.8,0.,4.8
1979-07-29 00:36:12.650 ,0,0,2.,4.8,0.,4.8,1.,4.8,0.,4.8
1979-07-29 00:36:17.450 ,0,0,1.,4.8,0.,4.8,0.,4.8,0.,4.8
1979-07-29 00:36:22.250 ,0,0,5.,4.8,1.,4.8,1.,4.8,0.,4.8
1979-07-29 00:36:27.050 ,0,0,,0,,0,,0,,0
1979-07-29 00:36:31.850 ,0,0,2.,4.8,0.,4.8,0.,4.8,0.,4.8
1979-07-29 00:36:36.650 ,0,0,3.,4.8,0.,4.8,0.,4.8,0.,4.8
1979-07-29 00:36:41.450 ,0,0,,0,,0,,0,,0
1979-07-29 00:36:46.250 ,2,0,3.,4.8,0.,4.8,1.,4.8,0.,4.8
1979-07-29 00:36:51.050 ,2,0,3.,4.8,0.,4.8,0.,4.8,0.,4.8
1979-07-29 00:36:55.850 ,2,0,1.,4.8,0.,4.8,0.,4.8,0.,4.8
1979-07-29 00:37:00.650 ,2,0,1.,4.8,0.,4.8,2.,4.8,0.,4.8
1979-07-29 00:37:05.450 ,2,0,2.,4.8,0.,4.8,0.,4.8,0.,4.8
1979-07-29 00:37:10.250 ,2,0,5.,4.8,0.,4.8,0.,4.8,0.,4.8
1979-07-29 00:37:15.050 ,2,0,,0,,0,,0,,0
1979-07-29 00:37:19.850 ,2,0,,0,,0,,0,,0
1979-07-29 00:37:24.650 ,2,0,0.,4.8,0.,4.8,0.,4.8,0.,4.8
1979-07-29 00:37:29.450 ,2,0,4.,4.8,0.,4.8,0.,4.8,0.,4.8
1979-07-29 00:37:34.250 ,0,0,3.,4.8,0.,4.8,3.,4.8,0.,4.8
1979-07-29 00:37:39.050 ,0,0,3.,4.8,0.,4.8,0.,4.8,0.,4.8
1979-07-29 00:37:43.850 ,0,0,3.,4.8,0.,4.8,0.,4.8,0.,4.8
1979-07-29 00:37:48.650 ,0,0,,0,,0,,0,,0
1979-07-29 00:37:53.450 ,0,0,6.,4.8,0.,4.8,0.,4.8,0.,4.8
1979-07-29 00:37:58.250 ,0,0,0.,4.8,0.,4.8,0.,4.8,0.,4.8
1979-07-29 00:38:03.050 ,0,0,3.,4.8,0.,4.8,0.,4.8,0.,4.8
1979-07-29 00:38:07.850 ,0,0,2.,4.8,0.,4.8,0.,4.8,0.,4.8
1979-07-29 00:38:12.650 ,0,0,2.,4.8,0.,4.8,0.,4.8,0.,4.8
1979-07-29 00:38:17.450 ,0,0,3.,4.8,0.,4.8,0.,4.8,0.,4.8
1979-07-29 00:38:22.250 ,0,0,,0,,0,,0,,0
1979-07-29 00:38:27.050 ,0,0,3.,4.8,0.,4.8,0.,4.8,0.,4.8
1979-07-29 00:38:31.850 ,0,0,4.,4.8,0.,4.8,0.,4.8,0.,4.8
1979-07-29 00:38:36.650 ,0,0,0.,4.8,0.,4.8,0.,4.8,0.,4.8
1979-07-29 00:38:41.450 ,0,0,4.,4.8,0.,4.8,1.,4.8,0.,4.8
1979-07-29 00:38:46.250 ,0,0,4.,4.8,0.,4.8,0.,4.8,0.,4.8
1979-07-29 00:38:51.050 ,0,0,,0,,0,,0,,0
1979-07-29 00:38:55.850 ,0,0,,0,,0,,0,,0
1979-07-29 00:39:00.650 ,0,0,3.,4.8,0.,4.8,0.,4.8,0.,4.8
1979-07-29 00:39:05.450 ,0,0,2.,4.8,0.,4.8,0.,4.8,0.,4.8
1979-07-29 00:39:10.250 ,0,0,3.,4.8,0.,4.8,1.,4.8,0.,4.8
1979-07-29 00:39:15.050 ,0,0,3.,4.8,0.,4.8,1.,4.8,0.,4.8
1979-07-29 00:39:19.850 ,0,0,4.,4.8,0.,4.8,0.,4.8,0.,4.8
1979-07-29 00:39:24.650 ,0,0,2.,4.8,0.,4.8,0.,4.8,0.,4.8
1979-07-29 00:39:29.450 ,0,0,,0,,0,,0,,0
1979-07-29 00:39:34.250 ,0,0,,0,,0,,0,,0
1979-07-29 00:39:39.050 ,0,0,,0,,0,,0,,0
1979-07-29 00:39:43.850 ,0,0,,0,,0,,0,,0
1979-07-29 00:39:48.650 ,0,0,,0,,0,,0,,0
1979-07-29 00:39:53.450 ,0,0,,0,,0,,0,,0
1979-07-29 00:40:53.450 ,0,0,,0,,0,,0,,0
1979-07-29 00:40:58.250 ,0,0,,0,,0,,0,,0
1979-07-29 00:41:03.050 ,0,0,1.,4.8,1.,4.8,0.,4.8,0.,4.8
1979-07-29 00:41:07.850 ,0,0,2.,4.8,0.,4.8,0.,4.8,0.,4.8
1979-07-29 00:41:12.650 ,0,0,0.,4.8,0.,4.8,0.,4.8,0.,4.8
1979-07-29 00:41:10.250 ,0,0,1.,4.8,0.,4.8,0.,4.8,0.,4.8
1979-07-29 00:41:15.050 ,0,0,2.,4.8,0.,4.8,1.,4.8,0.,4.8
1979-07-29 00:41:19.850 ,0,0,1.,4.8,0.,4.8,0.,4.8,0.,4.8
1979-07-29 00:41:24.650 ,0,0,0.,4.8,0.,4.8,0.,4.8,0.,4.8
1979-07-29 00:41:29.450 ,0,0,0.,4.8,0.,4.8,0.,4.8,0.,4.8
1979-07-29 00:41:34.250 ,7,0,3.,4.8,0.,4.8,0.,4.8,0.,4.8
1979-07-29 00:41:39.050 ,7,0,3.,4.8,0.,4.8,0.,4.8,0.,4.8
1979-07-29 00:41:43.850 ,7,0,1.,4.8,0.,4.8,0.,4.8,0.,4.8
1979-07-29 00:41:48.650 ,7,0,7.,4.8,0.,4.8,0.,4.8,0.,4.8
1979-07-29 00:41:53.450 ,7,0,1.,4.8,0.,4.8,0.,4.8,0.,4.8
1979-07-29 00:41:58.250 ,7,0,3.,4.8,0.,4.8,0.,4.8,0.,4.8
1979-07-29 00:42:03.050 ,7,0,1.,4.8,0.,4.8,0.,4.8,0.,4.8
1979-07-29 00:42:07.850 ,7,0,2.,4.8,0.,4.8,0.,4.8,0.,4.8
1979-07-29 00:42:12.650 ,7,0,2.,4.8,0.,4.8,0.,4.8,0.,4.8
1979-07-29 00:42:17.450 ,7,0,,0,,0,,0,,0
1979-07-29 00:42:22.250 ,6,0,2.,4.8,0.,4.8,0.,4.8,0.,4.8
1979-07-29 00:42:27.050 ,6,0,2.,4.8,0.,4.8,0.,4.8,0.,4.8
1979-07-29 00:42:31.850 ,6,0,3.,4.8,0.,4.8,0.,4.8,0.,4.8
1979-07-29 00:42:36.650 ,6,0,3.,4.8,0.,4.8,1.,4.8,0.,4.8
1979-07-29 00:42:41.450 ,6,0,2.,4.8,0.,4.8,0.,4.8,0.,4.8